Weather History for KCBM - October, 2013

Change the Weather History Date:

Thursday, October 10, 2013

  Actual Average Record
Temperature  
Mean Temperature 68 °F -  
Max Temperature 80 °F 75 °F 90 °F (2010)
Min Temperature 56 °F 52 °F 32 °F (2000)
Cooling Degree Days 3    
Growing Degree Days 18 (Base 50)    
Moisture  
Dew Point 60 °F    
Average Humidity 92    
Maximum Humidity 100    
Minimum Humidity 48    
Precipitation  
Precipitation 0.00 in - - ()
Sea Level Pressure  
Sea Level Pressure 30.10 in    
Wind  
Wind Speed 1 mph (West)    
Max Wind Speed 8 mph    
Max Gust Speed -    
Visibility 5 miles    
Events Fog , Rain    
Averages and records for this station are not official NWS values.
T = Trace of Precipitation, MM = Missing Value Source: NWS Daily Summary

Daily Weather History Graph

Daily Weather History Graph

Search for Another Location

Airport or City:

Trip Planner

Search our weather history database for the weather conditions in past years. The results will help you decide how hot, cold, wet, or windy it might be!

Date:

Astronomy

Oct. 10, 2013 Rise Set
Actual Time 6:54 AM CDT 6:25 PM CDT
Civil Twilight 6:29 AM CDT 6:50 PM CDT
Nautical Twilight 6:01 AM CDT 7:19 PM CDT
Astronomical Twilight 5:32 AM CDT 7:48 PM CDT
Moon 12:35 PM CDT (10/10) 11:13 PM CDT (10/10)
Length of Visible Light 12h 20m
Length of Day
11h 31m
Waxing Crescent, 36% of the Moon is Illuminated
Oct 10
Waxing Crescent
Oct 11
First Quarter
Oct 18
Full
Oct 26
Last Quarter
Nov 3
New

Hourly Weather History & Observations

Time (CDT) Temp. Heat Index Dew Point Humidity Pressure Visibility Wind Dir Wind Speed Gust Speed Precip Events Conditions
12:29 AM 62.6 °F - 62.6 °F 100% 30.10 in 4.0 mi Calm Calm - N/A   Clear
12:44 AM 62.6 °F - 62.6 °F 100% 30.10 in 2.5 mi Calm Calm - N/A   Clear
12:49 AM 62.6 °F - 62.6 °F 100% 30.10 in 1.2 mi Calm Calm - N/A   Clear
12:54 AM 62.6 °F - 62.6 °F 100% 30.10 in 1.0 mi Calm Calm - N/A   Clear
12:59 AM 61.7 °F - 61.7 °F 100% 30.11 in 1.2 mi Calm Calm - N/A   Clear
1:04 AM 59.0 °F - 59.0 °F 100% 30.11 in 1.8 mi Calm Calm - N/A   Clear
1:09 AM 60.8 °F - 60.8 °F 100% 30.11 in 2.5 mi NNE 1.2 mph - N/A   Clear
1:14 AM 60.8 °F - 60.8 °F 100% 30.11 in 1.5 mi NNE 1.2 mph - N/A   Clear
1:19 AM 60.8 °F - 60.8 °F 100% 30.11 in 2.0 mi NE 2.3 mph - N/A   Clear
1:24 AM 60.8 °F - 60.8 °F 100% 30.11 in 8.0 mi Calm Calm - N/A   Clear
1:49 AM 60.8 °F - 60.8 °F 100% 30.11 in 3.0 mi WNW 1.2 mph - N/A   Clear
1:59 AM 58.6 °F - 58.6 °F 100% 30.12 in 7.0 mi WNW 1.2 mph - N/A   Scattered Clouds
2:09 AM 59.0 °F - 59.0 °F 100% 30.11 in 1.2 mi Calm Calm - N/A   Scattered Clouds
2:14 AM 59.0 °F - 59.0 °F 100% 30.11 in 1.2 mi Calm Calm - N/A   Scattered Clouds
2:19 AM 59.0 °F - 59.0 °F 100% 30.11 in 4.0 mi Calm Calm - N/A   Partly Cloudy
2:24 AM 59.0 °F - 59.0 °F 100% 30.10 in 6.0 mi Calm Calm - N/A   Partly Cloudy
2:34 AM 59.0 °F - 59.0 °F 100% 30.11 in 2.5 mi Calm Calm - N/A   Clear
2:44 AM 59.0 °F - 59.0 °F 100% 30.10 in 4.0 mi Calm Calm - N/A   Clear
2:49 AM 59.0 °F - 59.0 °F 100% 30.10 in 0.8 mi Calm Calm - N/A   Clear
2:54 AM 57.2 °F - 57.2 °F 100% 30.10 in 0.8 mi Calm Calm - N/A   Clear
2:58 AM 57.7 °F - 57.7 °F 100% 30.11 in 0.5 mi Calm Calm - N/A Fog Fog
3:03 AM 57.2 °F - 57.2 °F 100% 30.10 in 0.5 mi West 1.2 mph - N/A Fog Fog
3:08 AM 57.2 °F - 57.2 °F 100% 30.10 in 0.8 mi Calm Calm - N/A   Clear
3:13 AM 57.2 °F - 57.2 °F 100% 30.10 in 0.5 mi Calm Calm - N/A Fog Fog
3:18 AM 57.2 °F - 57.2 °F 100% 30.10 in 0.5 mi Calm Calm - N/A Fog Fog
3:28 AM 57.2 °F - 57.2 °F 100% 30.10 in 0.8 mi Calm Calm - N/A   Clear
3:33 AM 57.2 °F - 57.2 °F 100% 30.10 in 1.2 mi West 1.2 mph - N/A   Clear
3:38 AM 59.0 °F - 59.0 °F 100% 30.10 in 3.0 mi West 1.2 mph - N/A   Clear
3:43 AM 59.0 °F - 59.0 °F 100% 30.10 in 1.5 mi Calm Calm - N/A   Clear
3:48 AM 59.0 °F - 59.0 °F 100% 30.10 in 1.0 mi Calm Calm - N/A   Clear
3:53 AM 59.0 °F - 59.0 °F 100% 30.10 in 1.5 mi Calm Calm - N/A   Clear
3:58 AM 58.3 °F - 58.3 °F 100% 30.11 in 3.0 mi Calm Calm - N/A   Clear
4:03 AM 57.2 °F - 57.2 °F 100% 30.10 in 1.2 mi Calm Calm - N/A   Clear
4:08 AM 57.2 °F - 57.2 °F 100% 30.10 in 0.8 mi Calm Calm - N/A   Clear
4:13 AM 57.2 °F - 57.2 °F 100% 30.10 in 0.5 mi Calm Calm - N/A Fog Fog
4:18 AM 57.2 °F - 57.2 °F 100% 30.10 in 0.8 mi Calm Calm - N/A   Clear
4:23 AM 57.2 °F - 57.2 °F 100% 30.10 in 1.0 mi Calm Calm - N/A   Clear
4:28 AM 57.2 °F - 57.2 °F 100% 30.11 in 0.5 mi Calm Calm - N/A Fog Fog
4:33 AM 57.2 °F - 57.2 °F 100% 30.10 in 0.5 mi Calm Calm - N/A Fog Fog
4:38 AM 57.2 °F - 57.2 °F 100% 30.10 in 0.8 mi Calm Calm - N/A   Clear
4:43 AM 57.2 °F - 57.2 °F 100% 30.11 in 1.0 mi Calm Calm - N/A   Clear
4:53 AM 57.2 °F - 57.2 °F 100% 30.11 in 1.2 mi Calm Calm - N/A   Partly Cloudy
4:58 AM 57.2 °F - 57.2 °F 100% 30.12 in 1.8 mi Calm Calm - N/A   Scattered Clouds
5:03 AM 57.2 °F - 57.2 °F 100% 30.11 in 1.2 mi Calm Calm - N/A   Partly Cloudy
5:08 AM 57.2 °F - 57.2 °F 100% 30.11 in 1.2 mi Calm Calm - N/A   Partly Cloudy
5:13 AM 57.2 °F - 57.2 °F 100% 30.11 in 1.5 mi Calm Calm - N/A   Partly Cloudy
5:18 AM 57.2 °F - 57.2 °F 100% 30.12 in 4.0 mi Calm Calm - N/A   Scattered Clouds
5:23 AM 57.2 °F - 57.2 °F 100% 30.12 in 10.0 mi Calm Calm - N/A   Scattered Clouds
5:58 AM 56.7 °F - 56.7 °F 100% 30.13 in 10.0 mi Calm Calm - N/A   Scattered Clouds
6:03 AM 57.2 °F - 57.2 °F 100% 30.12 in 10.0 mi Calm Calm - N/A   Scattered Clouds
6:13 AM 57.2 °F - 57.2 °F 100% 30.12 in 10.0 mi Calm Calm - N/A   Mostly Cloudy
6:58 AM 57.6 °F - 57.6 °F 100% 30.14 in 10.0 mi Calm Calm - N/A   Mostly Cloudy
7:03 AM 57.2 °F - 57.2 °F 100% 30.13 in 10.0 mi Calm Calm - N/A   Scattered Clouds
7:58 AM 59.9 °F - 59.9 °F 100% 30.15 in 10.0 mi Calm Calm - N/A   Clear
8:08 AM 60.8 °F - 60.8 °F 100% 30.14 in 10.0 mi Calm Calm - N/A   Partly Cloudy
8:58 AM 64.0 °F - 64.0 °F 100% 30.16 in 10.0 mi Calm Calm - N/A   Scattered Clouds
9:57 AM 71.6 °F - 64.4 °F 78% 30.16 in 10.0 mi Calm Calm - N/A   Light Drizzle
9:58 AM 70.7 °F - 64.6 °F 81% 30.17 in 10.0 mi Calm Calm - N/A   Light Drizzle
9:59 AM 71.6 °F - 64.4 °F 78% 30.16 in 10.0 mi Calm Calm - N/A   Scattered Clouds
10:05 AM 71.6 °F - 64.4 °F 78% 30.16 in 10.0 mi Calm Calm - N/A Rain Light Rain
10:07 AM 71.6 °F - 64.4 °F 78% 30.16 in 10.0 mi Calm Calm - N/A   Scattered Clouds
10:22 AM 69.8 °F - 64.4 °F 83% 30.16 in 10.0 mi Calm Calm - N/A   Mostly Cloudy
10:47 AM 71.6 °F - 64.4 °F 78% 30.15 in 10.0 mi SW 2.3 mph - N/A   Light Drizzle
10:52 AM 71.6 °F - 66.2 °F 83% 30.15 in 10.0 mi Variable 1.2 mph - N/A   Light Drizzle
10:55 AM 71.6 °F - 64.4 °F 78% 30.15 in 10.0 mi West 2.3 mph - N/A   Scattered Clouds
10:58 AM 72.5 °F - 65.1 °F 78% 30.16 in 10.0 mi Variable 2.3 mph - 0.00 in   Scattered Clouds
11:09 AM 73.4 °F - 64.4 °F 73% 30.15 in 10.0 mi NE 1.2 mph - N/A Rain Light Rain
11:16 AM 75.2 °F - 64.4 °F 69% 30.15 in 10.0 mi East 1.2 mph - N/A   Clear
11:17 AM 75.2 °F - 62.6 °F 65% 30.15 in 10.0 mi East 2.3 mph - N/A Rain Light Rain
11:25 AM 75.2 °F - 64.4 °F 69% 30.15 in 10.0 mi Variable 3.5 mph - N/A   Clear
11:32 AM 77.0 °F - 64.4 °F 65% 30.15 in 10.0 mi SSE 2.3 mph - N/A   Scattered Clouds
11:35 AM 77.0 °F - 64.4 °F 65% 30.15 in 10.0 mi SW 3.5 mph - N/A   Mostly Cloudy
11:58 AM 77.4 °F - 64.4 °F 64% 30.15 in 10.0 mi WSW 4.6 mph - 0.00 in   Overcast
12:03 PM 75.2 °F - 62.6 °F 65% 30.14 in 10.0 mi WSW 8.1 mph - N/A   Overcast
12:13 PM 77.0 °F - 62.6 °F 61% 30.14 in 10.0 mi Variable 2.3 mph - N/A   Mostly Cloudy
12:18 PM 77.0 °F - 62.6 °F 61% 30.13 in 10.0 mi Variable 4.6 mph - N/A   Scattered Clouds
12:58 PM 78.1 °F - 62.1 °F 58% 30.13 in 10.0 mi SW 3.5 mph - N/A   Clear
1:58 PM 79.7 °F - 62.2 °F 55% 30.10 in 10.0 mi West 4.6 mph - N/A   Partly Cloudy
2:58 PM 80.4 °F 81.1 °F 59.7 °F 49% 30.08 in 10.0 mi Variable 2.3 mph - N/A   Clear
3:56 PM 80.6 °F 81.1 °F 59.0 °F 48% 30.05 in 10.0 mi WSW 5.8 mph - N/A   Clear
4:56 PM 80.6 °F 81.1 °F 59.0 °F 48% 30.04 in 10.0 mi SSW 2.3 mph - N/A   Clear
5:55 PM 78.3 °F - 61.0 °F 55% 30.04 in 10.0 mi Calm Calm - N/A   Clear
6:55 PM 67.6 °F - 63.9 °F 88% 30.03 in 10.0 mi Calm Calm - N/A   Clear
6:56 PM 68.0 °F - 64.4 °F 88% 30.03 in 10.0 mi Calm Calm - N/A   Clear
7:56 PM 64.4 °F - 62.6 °F 94% 30.03 in 10.0 mi Calm Calm - N/A   Clear
8:56 PM 62.6 °F - 60.8 °F 94% 30.03 in 10.0 mi Calm Calm - N/A   Clear
9:56 PM 60.8 °F - 60.8 °F 100% 30.04 in 10.0 mi Calm Calm - N/A   Clear
10:56 PM 60.8 °F - 60.8 °F 100% 30.04 in 5.0 mi Calm Calm - N/A   Clear
11:07 PM 60.8 °F - 60.8 °F 100% 30.03 in 1.5 mi Calm Calm - N/A   Clear
11:08 PM 60.8 °F - 60.8 °F 100% 30.03 in 0.8 mi Calm Calm - N/A   Clear
11:09 PM 59.0 °F - 59.0 °F 100% 30.03 in 0.8 mi Calm Calm - N/A   Clear
11:11 PM 59.0 °F - 59.0 °F 100% 30.03 in 0.5 mi Calm Calm - N/A Fog Fog
11:15 PM 60.8 °F - 60.8 °F 100% 30.03 in 0.5 mi Calm Calm - N/A Fog Fog
11:16 PM 59.0 °F - 59.0 °F 100% 30.03 in 0.5 mi Calm Calm - N/A Fog Fog
11:17 PM 59.0 °F - 59.0 °F 100% 30.03 in 0.5 mi Calm Calm - N/A Fog Fog
11:23 PM 60.8 °F - 60.8 °F 100% 30.03 in 0.5 mi Calm Calm - N/A Fog Fog
11:24 PM 60.8 °F - 60.8 °F 100% 30.03 in 0.8 mi Calm Calm - N/A   Clear
11:25 PM 60.8 °F - 60.8 °F 100% 30.03 in 0.8 mi Calm Calm - N/A   Clear
11:28 PM 59.0 °F - 59.0 °F 100% 30.03 in 1.2 mi Calm Calm - N/A   Clear
11:29 PM 59.0 °F - 59.0 °F 100% 30.03 in 1.8 mi Calm Calm - N/A   Clear
11:30 PM 59.0 °F - 59.0 °F 100% 30.03 in 3.0 mi Calm Calm - N/A   Clear
11:31 PM 59.0 °F - 59.0 °F 100% 30.03 in 5.0 mi Calm Calm - N/A   Clear
11:32 PM 59.0 °F - 59.0 °F 100% 30.04 in 7.0 mi Calm Calm - N/A   Clear
11:56 PM 59.0 °F - 59.0 °F 100% 30.03 in 10.0 mi Calm Calm - N/A   Clear